Flag Weather past 2 weeks in Philadelphia, Pennsylvania, U.S.A.

Now
37 °F

Scattered clouds.


Feels Like: 27 °F
Forecast: 27 / 37 °F
Wind: 17 mph from West

Location: Philadelphia International Airport

Current Time: Nov 28, 2014 at 3:40:19 PM

Latest Report: Nov 28, 2014 at 2:54 PM


Visibility: 10 mi

Pressure: 30.23 "Hg

Humidity: 39%

Dew point: 14 °F

Location of PhiladelphiaLocation

Historic Weather in Philadelphia — Graph

°F

Philadelphia temperature yesterday

Maximum temperature yesterday: 41 °F (at 2:54 PM)
Minimum temperature yesterday: 31 °F (at 10:54 PM)
Average temperature yesterday: 37 °F

Past Weeks' High & Low Weather Summary

 TemperatureHumidityPressure
High72 °F (Nov 24, 12:54 PM)93% (Nov 17, 2:54 AM)30.55 "Hg (Nov 17, 2:54 AM)
Low21 °F (Nov 19, 5:54 AM)27% (Nov 18, 10:54 AM)29.54 "Hg (Nov 17, 3:54 PM)
Average41 °F58%30.09 "Hg
* Reported Nov 13 1:54 PM — Nov 28 1:54 PM, Philadelphia, Weather by CustomWeather, © 2014

Note: Actual official high and low records may vary slightly from our data, if they occured in-between our weather recording intervals... More about our weather records

Advertising

Philadelphia weather history for previous 24 hours

 ConditionsComfort  
Time TempWeatherWind HumidityBarometerVisibility
1:54 PM
Nov 28
37 °FScattered clouds.18 mph39%30.22 "Hg10 mi
12:54 PM37 °FScattered clouds.15 mph44%30.22 "Hg10 mi
11:54 AM37 °FPartly sunny.20 mph44%30.23 "Hg10 mi
10:54 AM39 °FPartly sunny.15 mph45%30.24 "Hg10 mi
9:54 AM37 °FPassing clouds.14 mph52%30.25 "Hg10 mi
8:54 AM36 °FPassing clouds.20 mph57%30.24 "Hg10 mi
7:54 AM34 °FPassing clouds.13 mph59%30.22 "Hg10 mi
6:54 AM32 °FPassing clouds.10 mph66%30.19 "Hg10 mi
5:54 AM34 °FPassing clouds.9 mph61%30.17 "Hg10 mi
4:54 AM34 °FPassing clouds.8 mph67%30.15 "Hg10 mi
3:54 AM34 °FPassing clouds.8 mph76%30.14 "Hg10 mi
2:54 AM34 °FPartly cloudy.6 mph76%30.14 "Hg10 mi
1:54 AM32 °FPartly cloudy.6 mph82%30.13 "Hg10 mi
12:54 AM33 °FPassing clouds.5 mph75%30.11 "Hg10 mi
11:54 PM
Nov 27
32 °FPassing clouds.8 mph75%30.13 "Hg10 mi
10:54 PM31 °FClear.6 mph76%30.13 "Hg10 mi
9:54 PM32 °FPassing clouds.5 mph75%30.11 "Hg10 mi
8:54 PM35 °FClear.7 mph70%30.11 "Hg10 mi
7:54 PM36 °FClear.7 mph67%30.10 "Hg10 mi
6:54 PM37 °FPassing clouds.9 mph67%30.09 "Hg10 mi
5:54 PM38 °FPassing clouds.7 mph65%30.07 "Hg10 mi
4:54 PM39 °FPassing clouds.10 mph62%30.06 "Hg10 mi
3:54 PM40 °FBroken clouds.12 mph63%30.04 "Hg10 mi
Weather by CustomWeather, © 2014

See weather overviewHow to use our weather pages